STARLINK-32459, 61715

Orbit data source: Space-Track

STARLINK-32459, 61715 is a payload satellite owned by SpaceX/Seattle (US) in LEO that was launched on Wed, 30 Oct 2024 UTC via an FALCON 9 launch vehicle from the Air Force Eastern Test Range (AFETR). Payload-class satellites include a variety of spacecraft equipped with specific instruments for various scientific and technological missions. These include communications satellites like Starlink; space stations such as the ISS; scientific satellites like the Hubble; Earth observation satellites from companies like Planet Labs, Umbra, and HawkEye 360; GPS; miniature CubeSats for education and research; and military/defense satellites.

Loading next visibility...
Identifier
61715, 2024-196J
Orbit
LEO
Last TLE update
1 day ago
Origin
Manufacturer
SpaceX/Seattle
Mission
Operational Commercial Communications
Bus & Motor
STARLINK V2M, Unknown motor
Mass
730 kg wet, ~700 kg dry
Launch date (UTC)
2024-10-30 (9 months ago)
Launch vehicle
FALCON 9
Launch site
Air Force Eastern Test Range (AFETR)
Object type
Payload
Rocket body
Debris
Shape & HBR
Box + 2 Pan, 14.5 m
Radar Cross Section
36.964 m², Large (>1 m²)

Expand to show TLE details & history

TLE from 1 day ago
0 STARLINK-32459
1 61715U 24196J   25200.02927259 -.00000913  00000-0 -18694-4 0  9994
2 61715  53.1603 106.5636 0001137  90.4289 269.6842 15.30194226 41387
Epoch: 2025-07-19T00:42Z
TLE epoch observation values (Epoch: 2025-07-19T00:42:09.151Z)
Latitude
-0.00004°
Longitude
158.95319°
Altitude
476.136 km
Speed
7.629 km/s
True Right ascension
07h 06m 15s
True Declination
0° 00' 00"
Sunlit
Object was in daylight at epoch
Visualization orbit readout
Latitude
26.19333°
Longitude
-49.0426°
Altitude
475.893 km
Speed
7.632 km/s
Apparent Right ascension
14h 38m 06s
Apparent Declination
-7° 46' 54"
Sunlit
Object is in full shadow
Visualization observer readout
Local Sidereal Time
23:08:52
Azimuth
289.969° WNW
Elevation
-33.471°
Doppler factor
1
Orbital elements
Apogee altitude
476.268 km
Perigee altitude
474.709 km
Semi-major axis
6,853.626 km
Eccentricity
0.00011
Inclination
53.1603°
RAAN
106.5636°
Arg. of periapsis
90.4289°
True anomaly
269.67117°
Mean anomaly
269.6842°
Eccentric anomaly
269.67769°
Mean motion
3.82527 °/min
Orbital period
94.11 mins
BSTAR
-0.000018694
Loading maneuver chart data...
Loading SW <> Apogee altitude chart data...
Loading historical data...
Loading historical data...
Loading historical data...
Loading historical data...
Loading historical data...
Loading historical data...
Loading historical data...
|